GFSWCAN_prec_precacc_195.txt.gz
Total_Precipitation_Accumulation
2.83 2.40 2.28 1.92 1.99 2.18 1.52 1.45 1.29 1.11 1.04 1.01 1.04 0.87 0.74 0.96 1.64 2.36 2.31 1.68 3.86 2.67 0.66 0.41 0.28 0.17 0.20 0.56 0.92 0.73 1.00 0.94 1.05 1.15 1.09 0.79 0.56 0.38 0.36 0.55 0.94 0.82 0.86 0.87 1.03 1.16 0.70 0.19 0.33 0.93 1.60 0.93 0.78 0.68
3.01 2.54 2.22 1.92 1.84 2.00 1.44 1.39 1.28 1.05 0.88 0.82 0.92 0.83 0.85 1.08 1.74 2.23 2.37 1.73 2.90 3.35 1.33 0.47 0.37 0.15 0.11 0.22 0.68 0.87 0.81 0.71 0.74 0.98 0.92 0.85 0.74 0.61 0.57 0.69 0.91 1.08 0.74 1.03 0.88 0.86 0.62 0.49 0.54 0.40 0.23 0.17 0.13 0.15
3.08 2.65 2.50 1.86 1.80 1.83 1.47 1.43 1.23 1.05 0.94 0.91 0.96 1.00 1.01 1.34 1.91 2.34 2.22 2.02 3.94 4.21 1.67 0.66 0.50 0.27 0.13 0.16 0.41 0.75 0.50 0.44 0.64 1.01 1.13 1.16 0.86 0.60 0.62 0.64 0.87 1.04 0.75 1.27 1.10 0.71 0.37 0.37 0.36 0.19 0.17 0.14 0.11 0.21
2.92 2.43 2.52 1.96 1.87 1.63 1.32 1.30 1.12 0.94 0.96 1.14 1.25 1.16 1.20 1.71 2.18 2.56 2.37 2.12 2.90 2.95 2.26 0.80 0.26 0.31 0.20 0.13 0.31 0.32 0.34 0.45 0.70 1.05 1.34 1.29 0.82 0.45 0.41 0.44 0.56 0.61 0.99 1.51 1.34 0.88 0.57 0.37 0.37 0.36 0.27 0.29 0.21 0.08
2.23 2.13 2.07 1.76 1.92 1.60 1.34 1.27 1.13 1.00 1.06 1.23 1.56 1.31 1.54 1.91 2.68 3.20 2.52 2.29 2.06 2.28 2.00 0.94 0.47 0.39 0.53 0.31 0.28 0.32 0.54 0.78 1.16 1.64 1.53 0.80 0.32 0.51 0.34 0.40 0.55 0.32 0.80 1.13 1.62 1.15 0.97 0.73 0.55 0.49 0.38 0.13 0.05 0.07
1.85 1.96 1.92 1.66 1.66 1.56 1.57 1.54 1.35 1.11 0.99 1.36 1.49 1.47 1.61 2.28 4.02 5.52 5.86 2.94 2.10 2.26 2.36 1.51 0.82 0.53 0.62 0.69 0.57 0.68 0.68 0.95 1.43 1.51 1.24 0.82 0.46 0.92 1.03 0.58 0.23 0.19 0.30 0.47 0.78 1.01 0.85 0.81 0.60 0.37 0.25 0.19 0.06 0.01
2.07 2.03 1.92 1.59 1.53 1.52 1.79 1.61 1.36 1.22 1.27 1.51 1.42 1.63 1.77 2.74 4.26 3.62 2.67 1.72 1.51 2.19 2.81 1.51 1.08 0.84 0.77 0.97 1.06 0.82 0.93 1.02 1.28 1.43 0.94 0.51 0.49 1.04 1.18 0.66 0.20 0.23 0.27 0.31 0.38 0.46 0.50 0.45 0.38 0.25 0.21 0.17 0.08 0.06
2.26 2.08 1.72 1.50 1.53 1.63 1.65 1.52 1.49 1.49 1.60 1.55 1.76 2.07 2.53 3.79 4.02 2.22 0.84 0.97 1.73 2.52 1.92 1.44 1.10 1.39 1.21 1.37 1.24 1.19 1.22 1.27 1.40 1.41 0.89 0.54 0.77 1.22 1.20 0.27 0.07 0.10 0.10 0.20 0.19 0.15 0.23 0.24 0.22 0.19 0.16 0.15 0.11 0.10
2.16 1.85 1.48 1.43 1.81 1.97 1.71 1.54 1.67 1.75 2.09 2.27 2.83 4.03 6.19 6.18 4.59 2.20 1.47 1.63 2.48 3.47 2.55 1.04 0.94 1.77 1.39 1.80 1.55 1.54 1.74 2.16 1.50 0.97 0.64 0.95 1.08 1.53 0.84 0.26 0.13 0.08 0.07 0.09 0.11 0.08 0.11 0.17 0.18 0.17 0.16 0.14 0.15 0.22
1.91 1.29 1.24 1.37 1.69 2.02 2.02 1.87 1.88 2.40 2.81 3.62 4.82 6.55 7.11 3.87 2.36 2.85 4.48 4.68 3.81 2.56 1.63 0.90 0.50 1.38 1.68 1.79 1.92 1.92 1.65 1.78 1.75 0.87 0.77 1.17 1.05 0.68 0.32 0.19 0.15 0.12 0.09 0.05 0.07 0.07 0.06 0.11 0.13 0.13 0.18 0.20 0.18 0.15
1.35 1.03 1.00 1.21 1.46 1.51 1.49 1.51 1.88 2.39 3.64 5.28 5.43 5.40 4.17 2.87 2.96 3.74 3.78 2.97 1.91 1.17 0.66 0.51 0.52 0.98 1.48 1.94 2.05 2.19 2.02 1.41 1.15 1.03 1.09 1.14 0.68 0.67 0.42 0.37 0.30 0.24 0.20 0.19 0.14 0.08 0.05 0.11 0.17 0.18 0.17 0.13 0.09 0.05
1.19 0.88 0.91 0.92 0.95 1.10 1.07 1.30 1.87 2.02 2.72 2.98 3.33 3.63 4.20 3.79 3.33 2.99 2.24 1.36 0.78 0.50 0.43 0.45 0.44 0.77 1.45 2.20 2.22 2.28 2.19 1.75 1.30 1.13 1.48 0.90 0.71 0.56 0.37 0.26 0.17 0.22 0.22 0.18 0.20 0.28 0.33 0.31 0.24 0.16 0.11 0.09 0.09 0.13
1.10 0.89 0.83 0.95 0.95 0.96 0.94 1.35 1.46 1.56 2.05 2.54 3.03 4.23 4.47 3.64 2.91 1.94 1.06 0.57 0.45 0.38 0.41 0.38 0.69 0.82 0.99 1.66 2.48 1.90 1.81 1.51 1.47 1.80 1.06 0.60 0.42 0.25 0.17 0.17 0.22 0.29 0.39 0.49 0.51 0.51 0.47 0.48 0.48 0.44 0.48 0.61 0.63 0.77
0.73 0.66 0.73 0.95 0.98 1.11 1.27 1.37 1.47 2.22 2.64 2.55 2.61 2.95 2.65 2.18 1.49 1.07 0.64 0.46 0.44 0.42 0.47 0.70 0.99 0.92 0.96 1.50 2.14 1.93 1.60 1.20 1.46 1.38 0.73 0.82 0.79 0.54 0.29 0.23 0.25 0.36 0.45 0.53 0.67 0.69 0.72 0.75 0.90 1.05 1.12 1.21 1.07 1.19
0.68 0.80 1.07 1.25 1.18 1.28 1.57 1.36 1.62 1.56 1.61 1.82 1.72 1.80 1.19 1.39 1.03 0.84 0.71 0.62 0.71 0.91 1.23 1.62 1.75 1.42 1.32 1.58 1.39 1.24 1.16 0.98 0.72 0.73 1.09 1.13 0.72 0.42 0.36 0.30 0.35 0.45 0.53 0.62 0.67 0.67 0.73 0.68 0.58 0.81 0.92 0.88 0.72 0.78
1.14 1.26 1.25 1.14 1.10 1.40 1.47 1.37 1.43 1.19 1.15 0.94 0.97 1.07 0.95 1.16 1.05 0.93 1.00 0.95 0.90 1.44 1.64 2.07 1.98 1.81 1.68 1.22 1.11 0.85 0.67 0.76 1.03 0.92 0.86 0.62 0.51 0.48 0.49 0.54 0.62 0.70 0.71 0.70 0.70 0.61 0.59 0.55 0.46 0.57 0.63 0.58 0.60 0.48
1.22 1.05 1.08 1.02 1.10 1.21 1.12 1.22 1.10 0.88 0.75 0.64 0.85 0.97 0.99 1.12 1.14 1.08 1.04 0.89 0.92 1.33 1.28 1.20 1.15 1.22 1.19 0.94 0.87 0.82 1.06 1.18 1.11 0.93 0.64 0.51 0.53 0.63 0.74 0.78 0.83 0.81 0.74 0.64 0.59 0.57 0.62 0.59 0.45 0.34 0.45 0.62 0.46 0.44
1.42 0.94 0.91 0.84 1.00 1.35 1.35 1.01 0.67 0.43 0.43 0.68 0.83 1.09 0.91 1.17 1.13 0.93 0.92 0.91 1.18 1.16 0.93 1.07 0.65 0.57 0.67 0.74 0.91 1.19 1.15 1.00 0.78 0.76 0.87 0.88 0.79 0.86 0.89 0.92 0.97 0.83 0.71 0.74 0.67 0.66 0.64 0.61 0.49 0.56 0.51 0.53 0.38 0.38
1.11 0.99 0.93 0.77 0.66 0.72 0.87 0.65 0.34 0.43 0.71 0.73 0.81 0.75 0.67 0.81 0.86 0.99 0.90 0.84 1.09 1.15 1.01 0.87 0.80 0.69 0.85 1.02 1.06 0.95 0.95 0.76 0.82 0.95 1.02 1.08 1.02 0.96 1.01 0.98 0.92 0.88 0.78 0.82 0.72 0.65 0.66 0.62 0.56 0.51 0.46 0.40 0.39 0.37
1.34 1.22 0.96 0.75 0.41 0.34 0.32 0.31 0.18 0.22 0.47 0.57 0.64 0.45 0.39 0.58 0.45 0.32 0.35 0.45 0.65 1.06 1.08 0.94 1.11 1.30 1.29 1.27 1.17 1.06 1.08 0.87 0.70 0.66 0.90 1.09 1.15 0.91 0.95 0.81 0.79 0.78 0.66 0.67 0.64 0.59 0.50 0.46 0.47 0.41 0.33 0.29 0.28 0.27
1.17 1.24 0.88 0.78 0.46 0.36 0.30 0.27 0.27 0.18 0.23 0.39 0.34 0.16 0.24 0.13 0.08 0.09 0.08 0.16 0.60 1.01 1.31 1.43 1.37 1.42 1.43 1.35 1.10 0.88 0.88 0.75 0.77 0.61 0.72 0.88 1.01 0.72 0.77 0.82 0.71 0.62 0.56 0.60 0.56 0.56 0.44 0.44 0.40 0.32 0.33 0.30 0.23 0.19
0.68 0.76 0.78 0.53 0.48 0.28 0.20 0.08 0.15 0.18 0.16 0.19 0.18 0.16 0.23 0.22 0.16 0.13 0.13 0.33 0.78 0.97 1.08 1.12 1.08 0.99 0.91 1.00 1.09 0.93 0.96 0.67 0.59 0.55 0.61 0.60 0.70 0.72 0.79 0.85 0.64 0.65 0.60 0.59 0.47 0.40 0.33 0.26 0.25 0.23 0.21 0.21 0.18 0.18
0.71 0.77 0.78 0.54 0.41 0.23 0.16 0.08 0.08 0.09 0.12 0.15 0.14 0.16 0.21 0.32 0.27 0.15 0.21 0.31 0.68 0.93 0.79 0.65 0.72 0.69 0.72 0.92 0.66 0.67 0.78 0.61 0.60 0.64 0.67 0.63 0.62 0.65 0.59 0.63 0.56 0.48 0.43 0.43 0.38 0.35 0.31 0.24 0.18 0.16 0.15 0.19 0.23 0.22
0.49 0.66 0.60 0.48 0.34 0.30 0.14 0.14 0.07 0.07 0.07 0.08 0.11 0.12 0.17 0.16 0.08 0.10 0.26 0.44 0.71 0.52 0.41 0.56 0.47 0.46 0.44 0.44 0.50 0.61 0.76 0.53 0.49 0.52 0.57 0.39 0.33 0.40 0.34 0.36 0.36 0.39 0.39 0.36 0.28 0.27 0.24 0.22 0.21 0.21 0.22 0.23 0.23 0.24
0.39 0.38 0.35 0.30 0.16 0.09 0.07 0.08 0.09 0.06 0.06 0.05 0.06 0.10 0.11 0.06 0.10 0.15 0.25 0.56 0.47 0.43 0.44 0.39 0.29 0.31 0.42 0.53 0.57 0.54 0.43 0.31 0.30 0.32 0.41 0.29 0.30 0.33 0.28 0.28 0.29 0.29 0.29 0.26 0.24 0.25 0.26 0.25 0.25 0.21 0.20 0.22 0.26 0.26
0.29 0.19 0.15 0.15 0.13 0.08 0.06 0.08 0.10 0.11 0.08 0.10 0.16 0.13 0.09 0.13 0.13 0.28 0.40 0.58 0.49 0.47 0.49 0.48 0.40 0.27 0.28 0.28 0.30 0.29 0.25 0.20 0.17 0.23 0.28 0.21 0.23 0.30 0.28 0.25 0.29 0.26 0.20 0.28 0.30 0.29 0.24 0.19 0.19 0.21 0.22 0.25 0.30 0.31
0.16 0.15 0.08 0.08 0.19 0.27 0.23 0.16 0.17 0.19 0.19 0.23 0.23 0.15 0.21 0.22 0.27 0.42 0.46 0.43 0.39 0.42 0.33 0.29 0.23 0.20 0.21 0.22 0.17 0.15 0.13 0.10 0.14 0.22 0.25 0.19 0.19 0.22 0.29 0.40 0.40 0.42 0.26 0.25 0.29 0.31 0.32 0.30 0.28 0.27 0.30 0.32 0.32 0.37
0.07 0.09 0.15 0.18 0.25 0.27 0.36 0.32 0.30 0.29 0.35 0.29 0.30 0.26 0.29 0.28 0.45 0.50 0.47 0.45 0.35 0.26 0.18 0.16 0.16 0.16 0.18 0.21 0.22 0.18 0.19 0.16 0.16 0.21 0.22 0.22 0.20 0.23 0.26 0.27 0.26 0.20 0.19 0.23 0.24 0.26 0.30 0.34 0.35 0.34 0.36 0.34 0.34 0.32
0.12 0.11 0.12 0.12 0.16 0.15 0.22 0.29 0.38 0.36 0.32 0.29 0.33 0.31 0.27 0.35 0.60 0.55 0.51 0.36 0.29 0.24 0.23 0.21 0.28 0.20 0.19 0.26 0.21 0.15 0.18 0.23 0.30 0.34 0.39 0.50 0.40 0.34 0.23 0.19 0.19 0.18 0.19 0.19 0.19 0.24 0.26 0.30 0.30 0.32 0.40 0.41 0.39 0.43
0.09 0.07 0.08 0.08 0.09 0.16 0.31 0.22 0.27 0.19 0.11 0.13 0.13 0.16 0.20 0.45 0.64 0.52 0.46 0.37 0.35 0.38 0.40 0.32 0.31 0.24 0.24 0.21 0.27 0.24 0.26 0.25 0.30 0.39 0.45 0.44 0.39 0.33 0.23 0.19 0.17 0.18 0.17 0.16 0.17 0.19 0.17 0.17 0.19 0.22 0.25 0.30 0.38 0.45
0.11 0.13 0.15 0.13 0.20 0.31 0.27 0.16 0.18 0.16 0.17 0.17 0.17 0.18 0.30 0.43 0.47 0.34 0.34 0.46 0.33 0.28 0.26 0.25 0.26 0.26 0.25 0.27 0.30 0.32 0.40 0.31 0.30 0.32 0.36 0.38 0.32 0.25 0.20 0.18 0.17 0.15 0.14 0.15 0.16 0.20 0.22 0.19 0.24 0.28 0.25 0.26 0.30 0.31
0.17 0.24 0.25 0.23 0.32 0.30 0.30 0.38 0.31 0.31 0.26 0.25 0.25 0.20 0.31 0.29 0.29 0.35 0.30 0.32 0.34 0.31 0.32 0.32 0.35 0.39 0.40 0.44 0.41 0.40 0.38 0.33 0.27 0.25 0.24 0.25 0.23 0.20 0.16 0.13 0.14 0.16 0.16 0.15 0.16 0.19 0.20 0.21 0.26 0.27 0.29 0.26 0.26 0.25
0.14 0.17 0.20 0.23 0.24 0.31 0.36 0.40 0.35 0.32 0.31 0.28 0.31 0.33 0.34 0.31 0.35 0.45 0.33 0.35 0.56 0.58 0.47 0.46 0.48 0.48 0.49 0.42 0.35 0.34 0.32 0.28 0.22 0.19 0.18 0.16 0.13 0.11 0.10 0.11 0.12 0.12 0.14 0.15 0.18 0.19 0.17 0.15 0.16 0.17 0.16 0.16 0.16 0.14

GFSWCAN_prec_precacc_198.txt.gz
Total_Precipitation_Accumulation
3.41 2.91 2.58 2.12 2.21 2.42 1.84 1.74 1.55 1.38 1.29 1.29 1.31 1.10 0.96 1.17 1.82 2.53 2.50 1.78 3.92 2.72 0.73 0.45 0.32 0.21 0.22 0.56 0.92 0.73 1.00 0.94 1.05 1.15 1.09 0.79 0.56 0.38 0.37 0.55 0.94 0.82 0.86 0.87 1.04 1.20 0.73 0.20 0.33 0.94 1.62 0.95 0.82 0.72
3.56 2.90 2.56 2.17 2.03 2.25 1.76 1.73 1.58 1.33 1.12 1.05 1.16 1.06 1.01 1.20 1.83 2.29 2.44 1.75 2.91 3.36 1.35 0.48 0.37 0.15 0.11 0.22 0.68 0.87 0.81 0.71 0.74 0.98 0.92 0.85 0.75 0.61 0.58 0.70 0.91 1.08 0.75 1.05 0.93 0.89 0.63 0.49 0.54 0.41 0.24 0.19 0.15 0.23
3.41 2.95 2.75 2.02 1.99 2.04 1.71 1.67 1.47 1.28 1.14 1.06 1.08 1.10 1.09 1.40 1.94 2.35 2.23 2.02 3.94 4.21 1.67 0.66 0.50 0.27 0.13 0.16 0.41 0.75 0.50 0.44 0.64 1.01 1.13 1.16 0.86 0.60 0.62 0.64 0.87 1.04 0.76 1.29 1.12 0.71 0.37 0.37 0.36 0.19 0.18 0.15 0.14 0.27
3.14 2.61 2.70 2.11 2.03 1.77 1.45 1.41 1.21 1.02 1.02 1.19 1.29 1.19 1.21 1.71 2.18 2.56 2.37 2.12 2.90 2.95 2.26 0.80 0.26 0.31 0.20 0.13 0.31 0.32 0.34 0.45 0.70 1.05 1.34 1.29 0.82 0.45 0.41 0.44 0.56 0.61 0.99 1.51 1.34 0.88 0.57 0.37 0.37 0.36 0.27 0.29 0.21 0.08
2.49 2.42 2.33 1.92 2.01 1.66 1.38 1.29 1.14 1.01 1.06 1.23 1.57 1.31 1.54 1.91 2.68 3.20 2.52 2.29 2.06 2.28 2.00 0.94 0.47 0.39 0.53 0.31 0.28 0.32 0.54 0.78 1.16 1.64 1.53 0.80 0.32 0.51 0.34 0.40 0.55 0.32 0.80 1.13 1.62 1.15 0.97 0.73 0.55 0.49 0.38 0.13 0.05 0.07
2.04 2.15 2.05 1.72 1.69 1.57 1.57 1.54 1.35 1.11 0.99 1.36 1.49 1.47 1.61 2.28 4.02 5.52 5.86 2.94 2.10 2.26 2.36 1.51 0.82 0.53 0.62 0.69 0.57 0.68 0.68 0.95 1.43 1.51 1.24 0.82 0.46 0.92 1.03 0.58 0.23 0.19 0.30 0.47 0.78 1.01 0.85 0.81 0.60 0.37 0.25 0.19 0.06 0.01
2.12 2.07 1.94 1.60 1.53 1.52 1.79 1.61 1.36 1.22 1.27 1.51 1.42 1.63 1.77 2.74 4.26 3.62 2.67 1.72 1.51 2.19 2.81 1.51 1.08 0.84 0.77 0.97 1.06 0.82 0.93 1.02 1.28 1.43 0.94 0.51 0.49 1.04 1.20 0.68 0.20 0.23 0.27 0.31 0.38 0.46 0.50 0.45 0.38 0.25 0.21 0.17 0.08 0.06
2.27 2.08 1.72 1.50 1.53 1.63 1.65 1.52 1.49 1.49 1.60 1.55 1.76 2.07 2.53 3.79 4.02 2.22 0.84 0.97 1.73 2.52 1.92 1.44 1.10 1.39 1.21 1.37 1.24 1.19 1.22 1.27 1.40 1.41 0.89 0.54 0.77 1.23 1.22 0.27 0.07 0.10 0.10 0.20 0.19 0.15 0.23 0.24 0.22 0.19 0.17 0.16 0.12 0.11
2.16 1.85 1.48 1.43 1.81 1.97 1.71 1.54 1.67 1.75 2.09 2.27 2.83 4.03 6.19 6.18 4.59 2.20 1.47 1.63 2.48 3.47 2.55 1.04 0.94 1.77 1.39 1.80 1.55 1.54 1.74 2.16 1.50 0.98 0.64 0.95 1.09 1.54 0.84 0.26 0.13 0.08 0.07 0.09 0.11 0.08 0.11 0.17 0.18 0.18 0.18 0.16 0.17 0.24
1.91 1.29 1.24 1.37 1.69 2.02 2.02 1.87 1.88 2.40 2.81 3.62 4.82 6.55 7.11 3.87 2.36 2.85 4.48 4.68 3.81 2.56 1.63 0.90 0.50 1.38 1.68 1.79 1.92 1.92 1.65 1.78 1.75 0.87 0.77 1.17 1.06 0.68 0.32 0.19 0.16 0.13 0.09 0.07 0.10 0.08 0.07 0.12 0.13 0.13 0.18 0.20 0.18 0.15
1.35 1.03 1.00 1.21 1.46 1.51 1.49 1.51 1.88 2.39 3.64 5.28 5.43 5.40 4.17 2.87 2.96 3.74 3.78 2.97 1.91 1.17 0.66 0.51 0.52 0.98 1.48 1.94 2.05 2.19 2.02 1.41 1.15 1.03 1.09 1.15 0.68 0.70 0.55 0.51 0.35 0.25 0.20 0.20 0.16 0.09 0.06 0.11 0.18 0.18 0.17 0.13 0.09 0.05
1.19 0.88 0.91 0.92 0.95 1.10 1.07 1.30 1.87 2.02 2.72 2.98 3.33 3.63 4.20 3.79 3.33 2.99 2.24 1.36 0.78 0.50 0.43 0.45 0.44 0.77 1.45 2.21 2.24 2.29 2.19 1.75 1.30 1.13 1.49 0.90 0.72 0.64 0.52 0.43 0.17 0.22 0.22 0.18 0.20 0.28 0.33 0.31 0.24 0.16 0.11 0.09 0.09 0.14
1.11 0.90 0.85 0.96 0.95 0.96 0.94 1.35 1.46 1.56 2.05 2.54 3.03 4.23 4.47 3.64 2.91 1.94 1.06 0.57 0.45 0.38 0.41 0.39 0.70 0.82 0.99 1.67 2.53 1.92 1.81 1.51 1.47 1.80 1.06 0.61 0.45 0.27 0.21 0.21 0.23 0.31 0.39 0.49 0.51 0.51 0.47 0.48 0.48 0.44 0.48 0.61 0.63 0.77
0.74 0.68 0.76 1.00 1.01 1.12 1.27 1.37 1.47 2.22 2.64 2.55 2.61 2.95 2.65 2.18 1.49 1.07 0.64 0.46 0.44 0.42 0.47 0.73 1.09 0.97 0.97 1.51 2.16 1.96 1.60 1.20 1.46 1.39 0.75 0.91 0.88 0.56 0.31 0.24 0.26 0.36 0.45 0.53 0.67 0.69 0.72 0.75 0.90 1.05 1.12 1.21 1.07 1.19
0.69 0.81 1.10 1.27 1.19 1.28 1.57 1.36 1.62 1.56 1.61 1.82 1.72 1.80 1.19 1.39 1.03 0.84 0.71 0.62 0.71 0.91 1.23 1.66 1.81 1.45 1.34 1.58 1.40 1.31 1.19 0.99 0.73 0.77 1.20 1.24 0.80 0.45 0.36 0.30 0.35 0.45 0.53 0.62 0.67 0.67 0.73 0.68 0.58 0.81 0.92 0.88 0.72 0.79
1.14 1.27 1.26 1.15 1.11 1.40 1.47 1.37 1.43 1.19 1.15 0.94 0.97 1.07 0.95 1.16 1.05 0.93 1.00 0.95 0.90 1.44 1.64 2.09 2.00 1.84 1.72 1.23 1.13 0.85 0.67 0.76 1.05 0.97 0.93 0.65 0.52 0.48 0.49 0.54 0.62 0.70 0.71 0.70 0.70 0.61 0.59 0.55 0.46 0.58 0.63 0.59 0.62 0.50
1.22 1.05 1.08 1.02 1.10 1.21 1.12 1.22 1.10 0.88 0.75 0.64 0.85 0.97 0.99 1.12 1.14 1.08 1.04 0.89 0.92 1.34 1.29 1.21 1.16 1.25 1.25 0.98 0.91 0.88 1.13 1.20 1.16 0.96 0.65 0.51 0.53 0.63 0.74 0.78 0.83 0.81 0.74 0.64 0.60 0.57 0.62 0.59 0.45 0.35 0.45 0.64 0.48 0.47
1.42 0.94 0.91 0.84 1.00 1.35 1.35 1.01 0.67 0.43 0.43 0.68 0.83 1.09 0.91 1.17 1.13 0.93 0.92 0.91 1.18 1.16 0.93 1.07 0.66 0.57 0.68 0.74 0.91 1.20 1.15 1.00 0.78 0.77 0.87 0.88 0.79 0.86 0.89 0.92 0.97 0.83 0.71 0.74 0.67 0.67 0.65 0.61 0.50 0.57 0.52 0.54 0.41 0.41
1.11 0.99 0.93 0.77 0.66 0.72 0.87 0.65 0.34 0.43 0.71 0.73 0.81 0.75 0.67 0.81 0.86 0.99 0.90 0.84 1.09 1.15 1.01 0.88 0.81 0.70 0.85 1.02 1.06 0.95 0.95 0.76 0.82 0.95 1.02 1.08 1.02 0.96 1.01 0.98 0.93 0.88 0.78 0.83 0.72 0.65 0.67 0.63 0.56 0.52 0.48 0.42 0.41 0.40
1.34 1.22 0.96 0.75 0.41 0.34 0.32 0.31 0.18 0.22 0.47 0.57 0.64 0.45 0.39 0.58 0.45 0.32 0.35 0.45 0.65 1.09 1.10 0.95 1.11 1.31 1.29 1.27 1.17 1.06 1.08 0.87 0.70 0.66 0.90 1.09 1.15 0.91 0.95 0.81 0.80 0.78 0.66 0.68 0.64 0.59 0.50 0.46 0.48 0.43 0.36 0.31 0.31 0.30
1.17 1.24 0.88 0.78 0.46 0.36 0.30 0.28 0.27 0.18 0.23 0.39 0.34 0.16 0.24 0.13 0.08 0.09 0.08 0.16 0.64 1.07 1.32 1.43 1.37 1.43 1.45 1.38 1.11 0.89 0.89 0.75 0.77 0.62 0.72 0.88 1.01 0.72 0.77 0.82 0.71 0.63 0.56 0.60 0.57 0.57 0.45 0.45 0.41 0.34 0.37 0.34 0.26 0.24
0.68 0.76 0.79 0.54 0.49 0.29 0.20 0.08 0.15 0.18 0.17 0.19 0.18 0.16 0.23 0.22 0.16 0.13 0.13 0.33 0.79 0.97 1.08 1.12 1.09 1.00 0.92 1.02 1.10 0.94 0.96 0.67 0.59 0.55 0.61 0.60 0.70 0.73 0.79 0.85 0.65 0.65 0.60 0.60 0.48 0.43 0.37 0.30 0.27 0.25 0.24 0.26 0.23 0.24
0.75 0.82 0.83 0.57 0.43 0.23 0.17 0.08 0.08 0.09 0.12 0.15 0.14 0.16 0.21 0.32 0.27 0.16 0.22 0.31 0.68 0.93 0.79 0.66 0.72 0.70 0.72 0.92 0.66 0.67 0.78 0.61 0.60 0.64 0.67 0.63 0.62 0.65 0.60 0.63 0.56 0.49 0.44 0.44 0.41 0.41 0.37 0.29 0.21 0.19 0.19 0.23 0.27 0.26
0.52 0.73 0.69 0.53 0.35 0.30 0.16 0.16 0.09 0.08 0.08 0.08 0.11 0.12 0.17 0.16 0.08 0.10 0.26 0.44 0.71 0.52 0.41 0.56 0.47 0.46 0.44 0.44 0.50 0.61 0.76 0.53 0.49 0.52 0.57 0.39 0.34 0.40 0.34 0.36 0.37 0.40 0.42 0.39 0.33 0.34 0.31 0.27 0.24 0.25 0.26 0.27 0.27 0.28
0.40 0.38 0.36 0.31 0.17 0.11 0.07 0.08 0.09 0.06 0.06 0.05 0.06 0.10 0.11 0.06 0.10 0.15 0.26 0.56 0.47 0.43 0.44 0.39 0.29 0.31 0.42 0.53 0.57 0.54 0.43 0.31 0.30 0.32 0.41 0.30 0.30 0.33 0.28 0.28 0.29 0.31 0.31 0.29 0.29 0.30 0.31 0.29 0.28 0.25 0.24 0.25 0.30 0.30
0.29 0.19 0.15 0.15 0.13 0.08 0.06 0.08 0.10 0.11 0.08 0.10 0.16 0.13 0.09 0.13 0.13 0.28 0.40 0.58 0.49 0.47 0.49 0.48 0.40 0.27 0.28 0.28 0.30 0.29 0.25 0.21 0.17 0.23 0.28 0.22 0.24 0.30 0.28 0.25 0.29 0.28 0.23 0.31 0.35 0.33 0.27 0.22 0.21 0.24 0.25 0.28 0.32 0.34
0.16 0.15 0.08 0.08 0.19 0.27 0.23 0.16 0.17 0.19 0.19 0.23 0.23 0.15 0.21 0.22 0.27 0.42 0.46 0.43 0.39 0.42 0.33 0.29 0.23 0.20 0.21 0.22 0.17 0.15 0.14 0.10 0.14 0.22 0.26 0.20 0.19 0.23 0.30 0.41 0.41 0.44 0.28 0.29 0.33 0.34 0.34 0.32 0.29 0.29 0.32 0.35 0.34 0.38
0.07 0.09 0.15 0.18 0.25 0.27 0.36 0.32 0.30 0.29 0.35 0.29 0.30 0.26 0.29 0.28 0.45 0.50 0.47 0.45 0.35 0.26 0.18 0.16 0.16 0.16 0.18 0.22 0.22 0.18 0.19 0.16 0.16 0.21 0.22 0.23 0.20 0.24 0.27 0.28 0.27 0.22 0.21 0.25 0.27 0.28 0.31 0.35 0.36 0.36 0.38 0.36 0.36 0.34
0.12 0.11 0.12 0.12 0.16 0.15 0.22 0.29 0.38 0.36 0.32 0.29 0.33 0.31 0.27 0.35 0.60 0.55 0.51 0.36 0.29 0.24 0.23 0.21 0.29 0.20 0.20 0.26 0.21 0.15 0.18 0.23 0.30 0.34 0.39 0.50 0.40 0.34 0.24 0.20 0.19 0.18 0.19 0.20 0.21 0.25 0.28 0.31 0.31 0.33 0.42 0.43 0.41 0.45
0.09 0.07 0.08 0.08 0.09 0.16 0.31 0.22 0.27 0.19 0.11 0.13 0.13 0.16 0.20 0.45 0.64 0.52 0.46 0.37 0.35 0.38 0.40 0.32 0.31 0.24 0.24 0.21 0.27 0.24 0.26 0.25 0.30 0.39 0.45 0.44 0.39 0.33 0.23 0.19 0.17 0.18 0.17 0.17 0.17 0.20 0.19 0.18 0.20 0.23 0.26 0.31 0.39 0.46
0.11 0.13 0.15 0.13 0.20 0.31 0.27 0.16 0.18 0.16 0.17 0.17 0.17 0.18 0.30 0.43 0.47 0.35 0.34 0.46 0.33 0.28 0.26 0.25 0.26 0.26 0.25 0.27 0.30 0.32 0.40 0.31 0.30 0.33 0.36 0.38 0.33 0.25 0.20 0.18 0.17 0.15 0.14 0.15 0.16 0.20 0.22 0.20 0.25 0.29 0.26 0.28 0.31 0.31
0.17 0.24 0.25 0.23 0.32 0.30 0.30 0.38 0.31 0.31 0.27 0.25 0.25 0.20 0.31 0.29 0.29 0.35 0.30 0.33 0.34 0.32 0.33 0.33 0.35 0.39 0.40 0.44 0.41 0.40 0.38 0.33 0.27 0.25 0.24 0.25 0.24 0.20 0.16 0.13 0.15 0.16 0.17 0.15 0.17 0.20 0.20 0.22 0.27 0.27 0.30 0.27 0.26 0.25
0.14 0.17 0.20 0.23 0.24 0.31 0.36 0.40 0.35 0.32 0.31 0.28 0.31 0.33 0.34 0.31 0.35 0.45 0.33 0.35 0.56 0.58 0.47 0.46 0.48 0.48 0.49 0.42 0.35 0.35 0.32 0.28 0.22 0.19 0.18 0.16 0.13 0.11 0.10 0.11 0.12 0.13 0.14 0.15 0.19 0.19 0.18 0.15 0.16 0.17 0.16 0.16 0.16 0.14

GFSWCAN_prec_precacc_204.txt.gz
Total_Precipitation_Accumulation
3.43 2.98 2.99 2.58 2.39 2.46 1.88 1.77 1.59 1.42 1.35 1.39 1.42 1.23 1.09 1.34 2.04 2.77 2.84 2.05 4.12 3.09 1.31 0.78 0.47 0.33 0.36 0.67 1.05 0.94 1.15 1.09 1.14 1.18 1.11 0.80 0.56 0.38 0.37 0.55 0.94 0.82 0.86 0.88 1.06 1.23 0.74 0.20 0.33 0.94 1.62 0.95 0.82 0.72
3.68 3.12 3.11 2.77 2.41 2.37 1.90 1.85 1.72 1.45 1.24 1.19 1.33 1.24 1.22 1.43 2.11 2.58 2.78 2.05 3.09 3.64 1.88 0.87 0.62 0.33 0.23 0.30 0.74 0.96 0.85 0.72 0.74 0.99 0.93 0.85 0.75 0.61 0.58 0.70 0.91 1.08 0.75 1.05 0.94 0.89 0.63 0.49 0.54 0.41 0.24 0.19 0.15 0.24
3.72 3.41 3.48 2.74 2.47 2.36 2.01 1.89 1.72 1.52 1.37 1.29 1.33 1.33 1.30 1.67 2.23 2.63 2.50 2.24 4.10 4.51 2.16 1.10 0.83 0.43 0.20 0.19 0.43 0.77 0.51 0.44 0.64 1.01 1.13 1.16 0.86 0.60 0.62 0.64 0.87 1.04 0.76 1.30 1.12 0.71 0.38 0.37 0.36 0.20 0.18 0.16 0.14 0.27
3.58 3.29 3.25 2.81 2.68 2.26 1.87 1.81 1.63 1.40 1.39 1.56 1.65 1.51 1.50 2.01 2.49 2.77 2.54 2.31 3.03 3.11 2.55 1.18 0.43 0.38 0.22 0.13 0.32 0.32 0.34 0.45 0.70 1.05 1.34 1.29 0.82 0.45 0.41 0.44 0.56 0.61 0.99 1.51 1.34 0.88 0.57 0.37 0.37 0.37 0.27 0.29 0.21 0.08
3.15 3.13 3.13 2.73 2.93 2.41 1.99 1.89 1.67 1.46 1.46 1.62 1.94 1.61 1.84 2.14 2.91 3.36 2.63 2.39 2.12 2.35 2.18 1.15 0.58 0.44 0.53 0.31 0.28 0.32 0.54 0.78 1.16 1.64 1.53 0.80 0.32 0.51 0.34 0.40 0.55 0.32 0.80 1.13 1.62 1.15 0.97 0.73 0.55 0.49 0.38 0.13 0.05 0.07
2.74 2.90 2.71 2.28 2.26 2.13 2.18 2.15 1.80 1.53 1.36 1.68 1.77 1.72 1.81 2.41 4.08 5.60 6.02 3.04 2.13 2.27 2.40 1.59 0.87 0.56 0.62 0.69 0.57 0.68 0.68 0.95 1.43 1.51 1.24 0.82 0.46 0.92 1.03 0.58 0.23 0.19 0.30 0.47 0.78 1.01 0.85 0.81 0.60 0.37 0.25 0.19 0.06 0.01
2.54 2.47 2.26 1.89 1.84 1.87 2.22 2.03 1.75 1.60 1.61 1.80 1.66 1.85 1.92 2.83 4.30 3.65 2.71 1.75 1.51 2.19 2.82 1.53 1.09 0.85 0.78 0.97 1.06 0.82 0.93 1.02 1.28 1.43 0.94 0.51 0.49 1.04 1.20 0.68 0.20 0.23 0.27 0.31 0.38 0.46 0.50 0.45 0.38 0.25 0.21 0.17 0.08 0.06
2.41 2.21 1.85 1.63 1.67 1.79 1.82 1.70 1.69 1.69 1.76 1.66 1.83 2.12 2.56 3.81 4.03 2.23 0.85 0.97 1.73 2.52 1.92 1.45 1.10 1.39 1.21 1.37 1.24 1.19 1.22 1.27 1.40 1.41 0.89 0.54 0.78 1.23 1.23 0.27 0.07 0.10 0.10 0.20 0.19 0.15 0.23 0.24 0.22 0.19 0.17 0.16 0.12 0.11
2.18 1.86 1.50 1.45 1.83 2.00 1.74 1.57 1.71 1.78 2.11 2.28 2.84 4.04 6.20 6.18 4.59 2.20 1.47 1.63 2.48 3.47 2.55 1.04 0.94 1.77 1.39 1.80 1.55 1.54 1.74 2.16 1.50 0.98 0.64 0.95 1.09 1.54 0.84 0.26 0.13 0.08 0.08 0.09 0.12 0.10 0.12 0.18 0.18 0.18 0.18 0.16 0.18 0.25
1.91 1.29 1.24 1.37 1.69 2.02 2.02 1.87 1.88 2.40 2.81 3.62 4.82 6.55 7.11 3.87 2.36 2.85 4.48 4.68 3.81 2.56 1.63 0.90 0.50 1.38 1.68 1.79 1.92 1.92 1.65 1.78 1.75 0.87 0.77 1.18 1.06 0.68 0.32 0.20 0.18 0.21 0.18 0.11 0.13 0.12 0.09 0.14 0.15 0.14 0.19 0.21 0.19 0.15
1.35 1.03 1.00 1.21 1.46 1.51 1.49 1.51 1.88 2.39 3.64 5.28 5.43 5.40 4.17 2.87 2.96 3.74 3.78 2.97 1.91 1.17 0.66 0.51 0.52 0.98 1.48 1.94 2.05 2.19 2.02 1.41 1.15 1.03 1.10 1.16 0.69 0.71 0.58 0.63 0.53 0.41 0.30 0.23 0.17 0.09 0.06 0.11 0.18 0.19 0.18 0.13 0.10 0.05
1.19 0.88 0.91 0.92 0.95 1.10 1.07 1.30 1.87 2.02 2.72 2.98 3.33 3.63 4.20 3.79 3.33 2.99 2.24 1.36 0.78 0.50 0.43 0.45 0.44 0.77 1.45 2.21 2.24 2.29 2.19 1.75 1.30 1.13 1.52 0.92 0.78 0.70 0.61 0.59 0.38 0.38 0.34 0.23 0.21 0.28 0.33 0.31 0.24 0.16 0.11 0.09 0.10 0.14
1.11 0.90 0.85 0.96 0.95 0.96 0.94 1.35 1.46 1.56 2.05 2.54 3.03 4.23 4.47 3.64 2.91 1.94 1.06 0.57 0.45 0.38 0.41 0.39 0.70 0.83 1.00 1.67 2.53 1.93 1.82 1.51 1.47 1.81 1.07 0.63 0.51 0.32 0.25 0.25 0.31 0.39 0.45 0.51 0.52 0.51 0.47 0.48 0.48 0.44 0.48 0.61 0.64 0.78
0.75 0.68 0.76 1.00 1.01 1.12 1.27 1.37 1.47 2.22 2.64 2.55 2.61 2.95 2.65 2.18 1.49 1.07 0.64 0.46 0.44 0.42 0.47 0.73 1.10 0.99 0.98 1.52 2.17 1.98 1.60 1.21 1.47 1.39 0.76 0.94 0.96 0.67 0.38 0.28 0.28 0.37 0.45 0.53 0.67 0.69 0.72 0.75 0.90 1.05 1.12 1.21 1.08 1.19
0.72 0.84 1.11 1.28 1.19 1.28 1.57 1.36 1.62 1.56 1.61 1.82 1.72 1.80 1.19 1.39 1.03 0.84 0.71 0.62 0.71 0.91 1.23 1.66 1.82 1.46 1.35 1.59 1.41 1.34 1.23 1.00 0.73 0.79 1.25 1.29 0.84 0.47 0.36 0.30 0.35 0.45 0.53 0.63 0.68 0.67 0.74 0.68 0.58 0.81 0.92 0.89 0.73 0.79
1.15 1.27 1.27 1.15 1.11 1.40 1.47 1.37 1.43 1.19 1.15 0.94 0.97 1.07 0.95 1.16 1.05 0.93 1.00 0.95 0.90 1.44 1.64 2.10 2.02 1.85 1.72 1.24 1.13 0.86 0.69 0.77 1.06 1.00 0.95 0.66 0.52 0.48 0.49 0.54 0.62 0.71 0.71 0.71 0.70 0.61 0.59 0.55 0.46 0.58 0.64 0.59 0.62 0.50
1.22 1.05 1.09 1.02 1.10 1.21 1.12 1.22 1.10 0.88 0.75 0.64 0.85 0.97 0.99 1.12 1.14 1.08 1.04 0.89 0.92 1.34 1.29 1.21 1.17 1.27 1.28 0.99 0.91 0.88 1.14 1.22 1.17 0.97 0.65 0.51 0.53 0.63 0.74 0.78 0.83 0.81 0.74 0.64 0.60 0.57 0.62 0.59 0.46 0.35 0.46 0.64 0.48 0.47
1.42 0.94 0.91 0.84 1.00 1.35 1.35 1.01 0.67 0.43 0.43 0.68 0.83 1.09 0.91 1.17 1.13 0.93 0.92 0.91 1.18 1.16 0.93 1.07 0.66 0.58 0.69 0.75 0.92 1.20 1.16 1.00 0.78 0.77 0.87 0.88 0.79 0.86 0.89 0.92 0.97 0.83 0.71 0.74 0.67 0.67 0.66 0.62 0.51 0.58 0.54 0.55 0.42 0.42
1.11 0.99 0.93 0.77 0.66 0.72 0.87 0.65 0.34 0.43 0.71 0.73 0.81 0.75 0.67 0.81 0.86 0.99 0.90 0.84 1.09 1.15 1.01 0.88 0.81 0.70 0.85 1.02 1.06 0.95 0.95 0.76 0.82 0.95 1.02 1.08 1.02 0.96 1.01 0.98 0.93 0.88 0.78 0.83 0.72 0.66 0.67 0.63 0.58 0.53 0.50 0.43 0.42 0.41
1.34 1.22 0.96 0.75 0.41 0.34 0.32 0.31 0.18 0.22 0.47 0.57 0.64 0.45 0.39 0.58 0.45 0.32 0.35 0.45 0.66 1.12 1.13 0.96 1.11 1.31 1.29 1.27 1.17 1.06 1.08 0.88 0.70 0.67 0.91 1.10 1.15 0.91 0.95 0.81 0.80 0.78 0.66 0.68 0.64 0.59 0.51 0.46 0.48 0.44 0.38 0.34 0.34 0.33
1.17 1.24 0.88 0.78 0.46 0.36 0.30 0.28 0.27 0.18 0.23 0.39 0.34 0.16 0.24 0.13 0.08 0.09 0.08 0.16 0.65 1.11 1.34 1.43 1.37 1.43 1.46 1.39 1.12 0.90 0.90 0.76 0.77 0.62 0.72 0.88 1.01 0.72 0.77 0.82 0.71 0.63 0.56 0.60 0.57 0.57 0.46 0.46 0.42 0.35 0.41 0.39 0.32 0.32
0.68 0.76 0.79 0.54 0.49 0.29 0.20 0.08 0.15 0.18 0.18 0.19 0.18 0.16 0.23 0.22 0.16 0.13 0.13 0.34 0.79 0.98 1.08 1.12 1.09 1.00 0.92 1.03 1.11 0.94 0.96 0.67 0.59 0.55 0.61 0.60 0.70 0.73 0.79 0.85 0.65 0.65 0.60 0.60 0.49 0.44 0.38 0.32 0.29 0.28 0.29 0.31 0.30 0.33
0.76 0.83 0.83 0.57 0.43 0.24 0.17 0.08 0.08 0.09 0.12 0.15 0.14 0.16 0.21 0.32 0.27 0.16 0.22 0.31 0.68 0.93 0.79 0.66 0.72 0.70 0.72 0.92 0.66 0.67 0.78 0.61 0.60 0.64 0.67 0.63 0.62 0.65 0.60 0.63 0.56 0.49 0.44 0.44 0.42 0.42 0.41 0.34 0.28 0.27 0.26 0.29 0.32 0.32
0.53 0.75 0.72 0.55 0.36 0.30 0.16 0.17 0.10 0.09 0.09 0.08 0.11 0.12 0.17 0.16 0.08 0.10 0.27 0.44 0.71 0.52 0.41 0.56 0.47 0.46 0.45 0.44 0.50 0.61 0.76 0.53 0.49 0.52 0.57 0.39 0.34 0.40 0.34 0.36 0.37 0.40 0.44 0.41 0.34 0.37 0.36 0.36 0.35 0.35 0.34 0.33 0.31 0.32
0.41 0.38 0.36 0.32 0.19 0.12 0.08 0.09 0.10 0.07 0.06 0.05 0.06 0.10 0.11 0.06 0.10 0.16 0.26 0.56 0.47 0.44 0.44 0.39 0.29 0.31 0.42 0.53 0.57 0.54 0.43 0.31 0.30 0.33 0.41 0.30 0.31 0.33 0.28 0.28 0.29 0.33 0.32 0.30 0.31 0.35 0.37 0.37 0.37 0.34 0.31 0.31 0.35 0.34
0.30 0.19 0.15 0.15 0.13 0.09 0.06 0.08 0.10 0.12 0.08 0.10 0.16 0.13 0.09 0.13 0.13 0.28 0.40 0.58 0.49 0.47 0.49 0.48 0.40 0.27 0.28 0.28 0.30 0.29 0.26 0.21 0.18 0.24 0.28 0.22 0.24 0.31 0.28 0.25 0.29 0.28 0.24 0.35 0.40 0.41 0.33 0.28 0.28 0.30 0.31 0.34 0.37 0.37
0.16 0.15 0.08 0.08 0.19 0.27 0.23 0.16 0.17 0.19 0.19 0.23 0.23 0.15 0.21 0.22 0.27 0.42 0.46 0.43 0.39 0.42 0.33 0.29 0.23 0.20 0.21 0.22 0.17 0.15 0.14 0.10 0.14 0.22 0.26 0.21 0.20 0.23 0.30 0.41 0.42 0.45 0.29 0.32 0.38 0.39 0.38 0.36 0.33 0.33 0.36 0.39 0.38 0.41
0.07 0.09 0.15 0.18 0.25 0.27 0.36 0.32 0.30 0.29 0.35 0.29 0.30 0.26 0.29 0.28 0.45 0.50 0.47 0.45 0.35 0.26 0.18 0.16 0.16 0.16 0.18 0.22 0.22 0.18 0.19 0.16 0.16 0.22 0.23 0.24 0.21 0.25 0.28 0.28 0.28 0.22 0.21 0.27 0.29 0.29 0.32 0.37 0.39 0.39 0.41 0.39 0.39 0.37
0.12 0.11 0.12 0.12 0.16 0.15 0.22 0.29 0.38 0.36 0.32 0.29 0.33 0.31 0.27 0.35 0.60 0.55 0.51 0.36 0.29 0.24 0.23 0.21 0.29 0.20 0.20 0.26 0.21 0.15 0.18 0.23 0.30 0.34 0.40 0.51 0.41 0.35 0.24 0.20 0.19 0.19 0.19 0.20 0.21 0.27 0.29 0.32 0.32 0.34 0.43 0.45 0.43 0.48
0.09 0.07 0.08 0.08 0.09 0.16 0.31 0.22 0.27 0.19 0.11 0.13 0.13 0.16 0.20 0.45 0.64 0.52 0.46 0.37 0.35 0.38 0.40 0.32 0.31 0.24 0.24 0.21 0.27 0.24 0.26 0.25 0.30 0.39 0.45 0.44 0.39 0.33 0.23 0.19 0.17 0.18 0.17 0.17 0.18 0.21 0.20 0.19 0.22 0.25 0.28 0.33 0.41 0.48
0.11 0.13 0.15 0.13 0.20 0.31 0.27 0.16 0.18 0.16 0.17 0.17 0.17 0.18 0.30 0.43 0.47 0.35 0.34 0.46 0.33 0.28 0.27 0.26 0.26 0.27 0.25 0.27 0.30 0.32 0.40 0.31 0.30 0.33 0.36 0.38 0.33 0.25 0.21 0.18 0.17 0.16 0.15 0.15 0.17 0.20 0.22 0.21 0.26 0.31 0.28 0.30 0.33 0.33
0.17 0.24 0.25 0.23 0.32 0.30 0.31 0.38 0.31 0.31 0.27 0.25 0.26 0.20 0.31 0.29 0.29 0.35 0.30 0.33 0.35 0.32 0.33 0.33 0.35 0.39 0.40 0.44 0.41 0.40 0.38 0.33 0.27 0.25 0.24 0.25 0.24 0.21 0.16 0.13 0.15 0.17 0.17 0.16 0.17 0.20 0.20 0.22 0.27 0.28 0.31 0.28 0.27 0.26
0.15 0.17 0.20 0.23 0.24 0.31 0.36 0.40 0.35 0.32 0.31 0.28 0.31 0.34 0.34 0.31 0.35 0.45 0.34 0.36 0.56 0.58 0.47 0.46 0.48 0.48 0.49 0.42 0.35 0.35 0.32 0.28 0.22 0.19 0.18 0.16 0.13 0.11 0.10 0.12 0.12 0.14 0.15 0.16 0.19 0.19 0.18 0.16 0.16 0.18 0.17 0.16 0.17 0.15

GFSWCAN_prec_precacc_207.txt.gz
Total_Precipitation_Accumulation
3.44 3.00 3.00 2.59 2.39 2.46 1.88 1.78 1.60 1.43 1.36 1.40 1.44 1.25 1.12 1.38 2.08 2.82 2.89 2.18 4.31 3.43 1.69 0.99 0.53 0.34 0.37 0.68 1.09 1.12 1.35 1.31 1.30 1.28 1.18 0.83 0.56 0.38 0.37 0.55 0.94 0.83 0.88 0.90 1.08 1.26 0.76 0.20 0.33 0.94 1.62 0.95 0.82 0.72
3.69 3.12 3.11 2.77 2.41 2.37 1.90 1.85 1.72 1.45 1.25 1.20 1.34 1.25 1.23 1.45 2.15 2.63 2.83 2.08 3.20 3.89 2.27 1.17 0.79 0.38 0.24 0.31 0.83 1.17 1.03 0.81 0.79 1.04 0.98 0.88 0.76 0.62 0.58 0.70 0.91 1.08 0.75 1.05 0.94 0.89 0.63 0.49 0.54 0.41 0.24 0.19 0.15 0.24
3.72 3.41 3.49 2.75 2.48 2.37 2.02 1.90 1.73 1.53 1.38 1.31 1.34 1.34 1.30 1.67 2.24 2.68 2.57 2.26 4.17 4.75 2.46 1.34 1.02 0.56 0.28 0.27 0.48 0.98 0.75 0.52 0.66 1.01 1.15 1.18 0.88 0.61 0.62 0.64 0.87 1.04 0.76 1.30 1.12 0.71 0.38 0.37 0.36 0.20 0.18 0.16 0.14 0.27
3.59 3.32 3.30 2.85 2.70 2.26 1.87 1.81 1.64 1.40 1.39 1.57 1.66 1.51 1.50 2.02 2.53 2.84 2.58 2.35 3.09 3.26 2.75 1.47 0.66 0.53 0.32 0.22 0.38 0.37 0.38 0.47 0.71 1.07 1.36 1.31 0.82 0.45 0.41 0.44 0.56 0.61 0.99 1.51 1.34 0.88 0.57 0.37 0.37 0.37 0.27 0.29 0.21 0.08
3.23 3.21 3.24 2.82 3.02 2.48 2.01 1.90 1.69 1.48 1.47 1.63 1.95 1.61 1.84 2.18 3.04 3.46 2.69 2.48 2.21 2.46 2.41 1.38 0.74 0.57 0.62 0.37 0.32 0.34 0.56 0.81 1.20 1.66 1.55 0.81 0.32 0.51 0.34 0.40 0.55 0.32 0.80 1.13 1.62 1.15 0.97 0.73 0.55 0.49 0.38 0.13 0.05 0.07
2.91 3.08 2.91 2.53 2.40 2.16 2.19 2.16 1.84 1.63 1.44 1.72 1.80 1.73 1.85 2.45 4.15 5.66 6.21 3.25 2.24 2.37 2.52 1.75 1.05 0.71 0.68 0.72 0.59 0.69 0.69 0.95 1.43 1.52 1.25 0.82 0.46 0.92 1.03 0.58 0.23 0.19 0.30 0.47 0.78 1.01 0.85 0.81 0.60 0.37 0.25 0.19 0.06 0.01
2.77 2.65 2.42 2.04 1.91 1.88 2.24 2.07 1.80 1.80 1.89 2.00 1.79 1.99 2.11 2.97 4.38 3.75 2.92 1.98 1.62 2.24 2.92 1.69 1.23 0.94 0.81 0.98 1.07 0.82 0.93 1.02 1.28 1.43 0.94 0.51 0.49 1.04 1.20 0.68 0.20 0.23 0.27 0.31 0.38 0.46 0.50 0.45 0.38 0.25 0.21 0.17 0.08 0.06
2.51 2.33 1.99 1.79 1.84 1.92 1.91 1.78 1.86 2.03 2.17 1.96 2.04 2.31 2.77 4.02 4.23 2.44 0.94 1.01 1.77 2.58 1.98 1.51 1.19 1.43 1.22 1.38 1.24 1.19 1.22 1.27 1.40 1.41 0.89 0.54 0.78 1.23 1.23 0.27 0.07 0.10 0.10 0.20 0.19 0.15 0.23 0.24 0.22 0.19 0.17 0.16 0.12 0.11
2.20 1.89 1.54 1.53 1.96 2.19 1.95 1.76 1.90 2.00 2.33 2.46 2.97 4.15 6.36 6.36 4.80 2.38 1.54 1.65 2.50 3.52 2.59 1.05 0.96 1.78 1.39 1.80 1.55 1.54 1.74 2.16 1.50 0.98 0.64 0.95 1.09 1.55 0.84 0.26 0.13 0.08 0.08 0.09 0.12 0.11 0.12 0.18 0.18 0.18 0.18 0.16 0.18 0.25
1.91 1.29 1.24 1.38 1.71 2.06 2.11 1.99 2.01 2.53 2.93 3.73 4.90 6.62 7.26 4.00 2.45 2.89 4.51 4.69 3.82 2.57 1.63 0.90 0.50 1.38 1.68 1.79 1.92 1.92 1.65 1.78 1.75 0.87 0.77 1.19 1.06 0.68 0.33 0.20 0.18 0.21 0.18 0.11 0.14 0.14 0.09 0.14 0.15 0.14 0.19 0.21 0.19 0.15
1.35 1.03 1.00 1.21 1.47 1.52 1.52 1.54 1.91 2.42 3.67 5.31 5.45 5.42 4.20 2.90 2.98 3.75 3.79 2.98 1.91 1.17 0.66 0.51 0.52 0.98 1.48 1.94 2.05 2.19 2.02 1.41 1.15 1.03 1.11 1.17 0.69 0.73 0.59 0.63 0.54 0.41 0.30 0.25 0.19 0.12 0.06 0.11 0.18 0.19 0.18 0.13 0.10 0.05
1.19 0.88 0.91 0.92 0.95 1.10 1.07 1.30 1.88 2.02 2.73 2.99 3.34 3.63 4.20 3.79 3.33 3.00 2.24 1.36 0.78 0.50 0.43 0.45 0.44 0.77 1.45 2.21 2.24 2.29 2.19 1.75 1.30 1.14 1.53 0.92 0.78 0.71 0.61 0.59 0.38 0.38 0.35 0.26 0.24 0.30 0.33 0.31 0.24 0.16 0.11 0.09 0.10 0.14
1.11 0.90 0.85 0.96 0.95 0.96 0.94 1.35 1.46 1.56 2.05 2.54 3.03 4.23 4.47 3.64 2.91 1.94 1.06 0.57 0.45 0.38 0.41 0.39 0.70 0.83 1.00 1.67 2.54 1.93 1.82 1.51 1.47 1.82 1.07 0.63 0.51 0.32 0.25 0.25 0.31 0.40 0.45 0.53 0.54 0.53 0.47 0.48 0.48 0.44 0.49 0.61 0.64 0.78
0.75 0.68 0.76 1.00 1.01 1.12 1.27 1.37 1.47 2.22 2.64 2.55 2.61 2.95 2.65 2.18 1.49 1.07 0.64 0.46 0.44 0.42 0.47 0.73 1.10 1.00 0.98 1.52 2.18 1.98 1.61 1.21 1.47 1.40 0.76 0.94 0.96 0.67 0.38 0.28 0.28 0.38 0.45 0.53 0.68 0.69 0.72 0.75 0.91 1.05 1.12 1.21 1.08 1.19
0.72 0.84 1.11 1.28 1.19 1.28 1.57 1.36 1.62 1.56 1.61 1.82 1.72 1.80 1.19 1.40 1.04 0.85 0.71 0.62 0.71 0.92 1.23 1.66 1.82 1.47 1.36 1.60 1.41 1.34 1.24 1.01 0.74 0.79 1.26 1.29 0.84 0.47 0.36 0.30 0.35 0.45 0.53 0.63 0.68 0.67 0.74 0.69 0.58 0.81 0.93 0.89 0.73 0.79
1.15 1.27 1.27 1.15 1.11 1.40 1.47 1.37 1.43 1.19 1.15 0.94 0.97 1.07 0.96 1.16 1.06 0.94 1.01 0.95 0.91 1.45 1.65 2.10 2.02 1.85 1.72 1.24 1.14 0.87 0.70 0.77 1.08 1.01 0.95 0.66 0.52 0.48 0.49 0.54 0.62 0.71 0.71 0.71 0.70 0.61 0.59 0.56 0.46 0.58 0.64 0.59 0.62 0.50
1.22 1.05 1.09 1.02 1.10 1.21 1.12 1.22 1.10 0.88 0.75 0.64 0.85 0.97 0.99 1.13 1.14 1.08 1.04 0.89 0.92 1.34 1.29 1.21 1.17 1.27 1.28 1.00 0.91 0.89 1.15 1.24 1.18 0.97 0.65 0.51 0.53 0.63 0.74 0.78 0.83 0.81 0.74 0.64 0.60 0.57 0.62 0.59 0.46 0.36 0.46 0.64 0.49 0.47
1.42 0.94 0.91 0.84 1.00 1.35 1.35 1.01 0.67 0.43 0.43 0.68 0.83 1.09 0.91 1.17 1.13 0.93 0.92 0.91 1.18 1.17 0.94 1.08 0.66 0.58 0.69 0.76 0.93 1.23 1.16 1.00 0.78 0.77 0.87 0.88 0.79 0.86 0.89 0.92 0.97 0.83 0.71 0.74 0.67 0.67 0.66 0.62 0.51 0.58 0.54 0.55 0.42 0.43
1.11 0.99 0.93 0.77 0.66 0.72 0.87 0.65 0.34 0.43 0.71 0.73 0.81 0.75 0.67 0.81 0.86 0.99 0.90 0.84 1.09 1.15 1.02 0.88 0.81 0.70 0.85 1.03 1.07 0.97 0.96 0.77 0.83 0.95 1.02 1.08 1.02 0.96 1.01 0.98 0.93 0.88 0.78 0.83 0.72 0.66 0.67 0.63 0.58 0.54 0.50 0.44 0.44 0.43
1.34 1.22 0.96 0.75 0.41 0.34 0.32 0.31 0.18 0.22 0.47 0.57 0.64 0.45 0.39 0.58 0.45 0.32 0.35 0.45 0.66 1.13 1.13 0.96 1.11 1.31 1.29 1.28 1.17 1.07 1.09 0.88 0.70 0.67 0.92 1.11 1.16 0.91 0.95 0.81 0.80 0.78 0.66 0.68 0.64 0.59 0.51 0.46 0.48 0.44 0.39 0.36 0.37 0.36
1.17 1.24 0.88 0.78 0.46 0.36 0.30 0.28 0.27 0.18 0.23 0.39 0.34 0.16 0.24 0.14 0.08 0.09 0.08 0.16 0.65 1.11 1.34 1.44 1.38 1.44 1.46 1.39 1.12 0.90 0.90 0.76 0.77 0.62 0.73 0.89 1.02 0.72 0.77 0.82 0.71 0.63 0.56 0.60 0.57 0.57 0.46 0.46 0.42 0.36 0.42 0.42 0.37 0.38
0.68 0.76 0.79 0.54 0.49 0.29 0.20 0.08 0.15 0.18 0.18 0.19 0.18 0.16 0.24 0.22 0.17 0.14 0.13 0.34 0.80 0.98 1.08 1.13 1.09 1.00 0.92 1.03 1.11 0.94 0.96 0.67 0.59 0.55 0.61 0.60 0.70 0.73 0.79 0.85 0.65 0.65 0.60 0.60 0.49 0.44 0.39 0.33 0.30 0.30 0.31 0.36 0.33 0.37
0.76 0.84 0.83 0.57 0.43 0.24 0.17 0.08 0.08 0.09 0.12 0.15 0.14 0.17 0.21 0.32 0.28 0.16 0.23 0.31 0.68 0.93 0.79 0.66 0.72 0.70 0.73 0.93 0.66 0.67 0.78 0.61 0.60 0.64 0.67 0.63 0.62 0.65 0.60 0.63 0.56 0.50 0.45 0.45 0.42 0.43 0.41 0.34 0.30 0.29 0.28 0.32 0.36 0.36
0.53 0.75 0.72 0.55 0.36 0.31 0.16 0.18 0.10 0.09 0.09 0.09 0.12 0.12 0.17 0.16 0.08 0.10 0.27 0.44 0.71 0.52 0.41 0.56 0.47 0.46 0.45 0.45 0.50 0.61 0.76 0.53 0.49 0.52 0.57 0.39 0.34 0.40 0.34 0.36 0.37 0.41 0.45 0.41 0.34 0.37 0.37 0.40 0.38 0.37 0.37 0.37 0.36 0.36
0.41 0.38 0.36 0.32 0.19 0.13 0.09 0.09 0.10 0.07 0.07 0.05 0.07 0.10 0.11 0.06 0.10 0.16 0.26 0.56 0.47 0.44 0.44 0.39 0.29 0.31 0.42 0.53 0.57 0.54 0.43 0.31 0.30 0.33 0.41 0.30 0.31 0.33 0.28 0.28 0.30 0.33 0.33 0.31 0.31 0.36 0.40 0.39 0.39 0.37 0.34 0.35 0.38 0.37
0.31 0.19 0.15 0.15 0.13 0.09 0.06 0.08 0.10 0.12 0.09 0.10 0.16 0.13 0.09 0.13 0.13 0.28 0.40 0.58 0.49 0.47 0.49 0.49 0.40 0.27 0.28 0.28 0.30 0.29 0.26 0.21 0.18 0.24 0.28 0.22 0.24 0.31 0.29 0.26 0.30 0.30 0.24 0.35 0.42 0.42 0.36 0.30 0.30 0.32 0.34 0.37 0.40 0.40
0.16 0.15 0.08 0.08 0.19 0.27 0.23 0.16 0.17 0.19 0.19 0.23 0.23 0.15 0.21 0.22 0.27 0.42 0.46 0.43 0.39 0.42 0.33 0.29 0.23 0.20 0.21 0.22 0.17 0.15 0.14 0.10 0.14 0.22 0.26 0.21 0.20 0.24 0.30 0.42 0.42 0.45 0.30 0.32 0.39 0.41 0.40 0.38 0.35 0.35 0.38 0.41 0.40 0.43
0.07 0.09 0.15 0.18 0.25 0.27 0.36 0.32 0.30 0.29 0.35 0.29 0.30 0.26 0.29 0.28 0.45 0.50 0.47 0.45 0.35 0.26 0.18 0.16 0.16 0.16 0.18 0.22 0.22 0.18 0.19 0.16 0.16 0.22 0.23 0.24 0.21 0.25 0.28 0.29 0.28 0.22 0.22 0.27 0.29 0.30 0.33 0.38 0.40 0.40 0.42 0.41 0.41 0.39
0.12 0.11 0.12 0.13 0.16 0.15 0.22 0.29 0.38 0.36 0.32 0.29 0.33 0.31 0.27 0.35 0.60 0.55 0.51 0.36 0.29 0.24 0.23 0.21 0.29 0.20 0.20 0.26 0.21 0.15 0.18 0.23 0.30 0.34 0.40 0.51 0.41 0.37 0.24 0.20 0.20 0.19 0.20 0.21 0.22 0.27 0.30 0.33 0.33 0.35 0.44 0.46 0.44 0.49
0.09 0.07 0.08 0.08 0.09 0.16 0.31 0.22 0.27 0.19 0.11 0.13 0.13 0.16 0.20 0.45 0.64 0.52 0.46 0.37 0.35 0.38 0.40 0.32 0.31 0.24 0.24 0.21 0.27 0.24 0.26 0.25 0.30 0.39 0.45 0.45 0.40 0.34 0.23 0.19 0.18 0.18 0.18 0.18 0.18 0.21 0.20 0.20 0.23 0.26 0.28 0.34 0.42 0.49
0.11 0.13 0.15 0.13 0.20 0.31 0.27 0.16 0.18 0.16 0.17 0.17 0.17 0.18 0.30 0.43 0.47 0.35 0.34 0.46 0.33 0.29 0.27 0.26 0.27 0.27 0.26 0.27 0.30 0.32 0.40 0.31 0.30 0.33 0.36 0.38 0.33 0.26 0.21 0.19 0.18 0.16 0.15 0.15 0.17 0.21 0.23 0.21 0.27 0.31 0.29 0.31 0.34 0.34
0.17 0.24 0.25 0.23 0.32 0.30 0.31 0.38 0.31 0.31 0.27 0.25 0.26 0.20 0.31 0.29 0.29 0.35 0.30 0.34 0.36 0.33 0.33 0.33 0.36 0.39 0.40 0.44 0.41 0.40 0.38 0.33 0.27 0.25 0.24 0.25 0.24 0.21 0.16 0.14 0.15 0.18 0.18 0.16 0.17 0.20 0.20 0.22 0.28 0.29 0.32 0.29 0.28 0.27
0.15 0.17 0.20 0.23 0.24 0.31 0.37 0.40 0.35 0.32 0.31 0.28 0.31 0.34 0.35 0.32 0.35 0.45 0.34 0.36 0.57 0.59 0.48 0.46 0.49 0.48 0.49 0.42 0.35 0.35 0.32 0.28 0.22 0.19 0.18 0.16 0.13 0.11 0.10 0.12 0.13 0.14 0.15 0.17 0.20 0.20 0.18 0.16 0.17 0.18 0.17 0.17 0.17 0.15